Location: Courçay
(47.2523°N, 0.8761°E)
Time: 22:00:36
(UTC+00:00)

RESURS DK-1 - Pass Details

Date: 18 November 2025
Orbit: 524 x 535 km, 69.9° (Epoch: 04 December)

Event Time Altitude Azimuth Distance (km) Brightness Sun altitude
Rises 16:52:00 0° 335° (NNW) 2,699 5.9 -6.1°
Reaches altitude 10° 16:54:16 10° 342° (NNW) 1,803 4.9 -6.4°
Maximum altitude 16:58:09 46° 56° (ENE) 730 2.5 -7.1°
Drops below altitude 10° 17:02:00 10° 131° (SE) 1,788 4.7 -7.7°
Sets 17:04:14 0° 137° (SE) 2,674 5.6 -8.0°
